This is the latest recevied weather packets stored in our database for station/object DR0T. If no packets are shown the sender has not sent any weather packets the latest 10 day(s).
| Time | Temp. | Humidity | Pressure | Rain* | Wind** | Luminosity | Snow |
|---|---|---|---|---|---|---|---|
| 1778155950 | 8.33° C | 92% | 1015.5 hPa | 0 mm | - | - | - |
| 1778155649 | 8.89° C | 92% | 1015.4 hPa | 0 mm | - | - | - |
| 1778155346 | 8.89° C | 92% | 1015.5 hPa | 0 mm | - | - | - |
| 1778155045 | 8.89° C | 92% | 1015.4 hPa | 0 mm | - | - | - |
| 1778154743 | 9.44° C | 92% | 1015.3 hPa | 0 mm | - | - | - |
| 1778154442 | 8.89° C | 92% | 1015.4 hPa | 0 mm | - | - | - |
| 1778154143 | 8.89° C | 92% | 1015.3 hPa | 0 mm | - | - | - |
| 1778153840 | 8.33° C | 93% | 1015.4 hPa | 0 mm | - | - | - |
| 1778153543 | 8.89° C | 92% | 1015.3 hPa | 0 mm | - | - | - |
| 1778153237 | 8.33° C | 93% | 1015.3 hPa | 0 mm | - | - | - |
| 1778152938 | 7.78° C | 94% | 1015.3 hPa | 0 mm | - | - | - |
| 1778152655 | 7.78° C | 95% | 1015.3 hPa | 0 mm | - | - | - |
| 1778152354 | 7.78° C | 96% | 1015.3 hPa | 0 mm | - | - | - |
| 1778152053 | 7.78° C | 97% | 1015.4 hPa | 0 mm | - | - | - |
| 1778151752 | 7.78° C | 97% | 1015.3 hPa | 0 mm | - | - | - |
| 1778151450 | 7.78° C | 96% | 1015.3 hPa | 0 mm | - | - | - |
| 1778151155 | 7.78° C | 97% | 1015.3 hPa | 0 mm | - | - | - |
| 1778150848 | 7.78° C | 98% | 1015.2 hPa | 0 mm | - | - | - |
| 1778150547 | 7.78° C | 98% | 1015.3 hPa | 0 mm | - | - | - |
| 1778150246 | 7.78° C | 97% | 1015.2 hPa | 0 mm | - | - | - |
| 1778149944 | 7.78° C | 97% | 1015.3 hPa | 0 mm | - | - | - |
| 1778149643 | 7.78° C | 96% | 1015.1 hPa | 0 mm | - | - | - |
| 1778149348 | 7.78° C | 97% | 1015.1 hPa | 0 mm | - | - | - |
| 1778149042 | 7.22° C | 98% | 1015 hPa | 0 mm | - | - | - |
| 1778148741 | 7.22° C | 97% | 1015 hPa | 0 mm | - | - | - |
* Rain latest hour (hover to see other rain measurements)
** Current wind speed in m/s (hover to see current wind gust speed)